Temperature
17 17 17 17 17 17 17 17 17 17 17 17 17 17 17 17 17 16 16 16 16 16 16 16 16 16 16 16 16 16 16 16 16 16 16 15 15 15 15 15 15 15 15
17 17 17 17 17 17 17 17 17 17 17 17 17 17 17 16 16 16 16 16 16 16 16 16 16 16 16 16 16 16 16 16 16 16 15 15 15 15 15 15 15 15 15
16 16 17 17 17 17 17 17 17 17 17 16 16 16 16 16 16 16 16 16 16 16 16 16 16 16 16 16 16 16 16 16 15 15 15 14 14 15 15 15 15 15 15
16 16 16 16 16 16 16 17 17 16 16 16 16 16 16 16 16 16 16 16 16 16 16 16 16 16 15 15 15 15 15 15 15 15 14 14 14 14 14 14 14 14 14
16 16 16 16 16 16 16 16 16 16 16 16 16 16 16 16 16 16 16 16 15 15 15 15 15 15 15 15 15 15 15 15 15 14 14 14 14 14 14 14 14 14 14
15 15 16 16 16 16 16 16 16 16 16 16 16 16 16 16 16 16 16 15 15 15 15 15 15 15 15 15 15 15 15 15 14 14 14 14 14 14 14 14 14 14 14
15 15 16 16 16 16 16 16 16 16 16 16 16 15 15 15 15 15 15 15 15 15 15 15 15 15 15 15 15 15 15 15 14 14 14 14 14 14 13 13 13 13 13
15 15 15 15 16 16 16 16 16 15 15 15 15 15 15 15 15 15 15 15 15 15 15 15 15 15 15 15 14 14 14 14 14 13 13 13 13 13 13 13 13 13 13
15 15 15 15 15 15 15 15 15 15 15 15 15 15 15 15 15 15 15 15 15 15 15 15 15 14 14 14 14 14 14 14 13 13 13 13 13 13 12 12 12 12 12
15 15 15 15 15 15 15 15 15 15 15 15 15 15 15 15 15 15 15 15 14 14 14 14 14 14 14 14 14 14 14 13 13 13 12 12 13 12 12 12 12 12 12
15 14 14 14 14 14 14 14 15 15 15 15 15 15 15 14 14 14 14 14 14 14 14 14 14 14 14 14 13 13 13 13 12 12 12 12 12 12 12 12 12 11 11
14 14 14 14 14 14 14 14 14 14 14 14 14 14 14 14 14 14 14 14 14 14 14 13 13 13 13 13 13 13 13 13 12 12 12 12 12 12 11 11 11 11 11
14 14 14 14 14 14 14 14 14 14 14 14 14 14 14 14 14 14 14 13 13 13 13 13 13 13 13 13 13 13 12 12 12 12 12 12 12 11 11 11 11 11 11
14 14 14 14 14 14 14 14 14 14 14 14 14 14 14 14 14 13 13 13 13 13 13 13 13 13 13 12 12 12 12 12 12 11 11 11 11 11 11 10 10 10 10
14 14 14 14 14 14 14 14 14 14 14 14 14 14 14 13 13 13 13 13 13 13 13 12 12 12 12 12 12 12 12 11 11 11 11 11 11 11 10 10 10 10 10
14 14 14 13 13 14 13 13 13 13 13 13 13 13 13 13 13 13 13 13 12 12 12 12 12 12 12 12 12 12 11 11 11 11 10 10 10 10 10 10 10 9 9
13 13 13 13 13 13 13 13 13 13 13 13 13 13 13 13 13 13 12 12 12 12 12 12 12 12 12 11 11 11 11 11 11 10 10 10 9 9 9 9 9 9 8
13 13 13 13 13 13 13 13 12 13 13 13 13 12 12 12 12 12 12 12 12 12 12 11 11 11 11 11 11 11 10 10 10 10 9 9 9 9 9 9 9 8 8
13 13 13 13 12 12 12 12 12 12 12 12 12 12 12 12 12 12 12 12 11 11 11 11 11 11 11 11 10 10 10 10 9 9 9 8 8 8 8 8 8 8 8
13 13 12 12 12 12 12 12 12 12 12 12 12 12 12 12 12 11 11 11 11 11 11 11 11 10 10 10 10 10 9 9 9 8 8 8 8 8 7 7 7 7 7
12 12 12 12 12 12 12 12 11 11 11 11 11 11 11 11 11 11 11 11 11 11 10 10 10 10 10 9 9 8 8 8 8 8 7 7 7 7 7 7 7 6 6
12 12 12 12 12 12 12 12 12 11 11 11 11 11 11 11 11 11 10 10 10 10 10 10 10 9 9 8 7 7 7 7 7 7 7 7 7 7 6 6 6 6 6
12 12 12 12 12 12 11 11 11 11 11 11 11 11 10 10 10 10 10 10 10 10 9 9 9 9 8 8 7 6 6 7 6 7 7 6 6 6 6 6 6 6 5
12 12 12 11 12 11 11 11 11 11 11 11 11 10 10 10 10 10 10 9 9 9 9 9 8 8 7 7 7 6 6 6 5 5 6 6 6 6 5 5 5 5 5
11 11 11 11 11 11 11 11 11 11 11 11 10 10 10 10 9 9 9 9 9 9 8 8 8 7 7 7 6 6 6 5 5 4 5 5 5 5 5 5 5 5 5
11 11 11 11 11 11 11 11 11 11 10 10 10 10 10 9 9 9 9 8 8 8 8 8 7 7 7 6 6 6 5 5 4 4 4 4 4 5 5 4 4 4 4
Wind_Speed
10 12 14 14 14 14 13 14 13 14 14 14 14 14 14 13 13 12 13 13 13 13 13 14 14 14 14 14 14 13 13 13 13 13 12 12 12 11 11 10 8 8 10
13 15 16 14 15 14 14 14 14 14 14 14 14 14 14 13 13 13 13 13 13 13 14 14 14 14 14 14 14 13 13 13 12 12 10 11 12 12 11 12 11 10 11
14 16 16 15 15 15 15 15 14 14 14 14 14 14 13 13 13 13 13 13 13 13 14 14 13 13 13 13 13 13 12 12 12 10 7 9 11 12 12 11 11 11 10
14 15 15 16 16 15 15 15 15 14 14 14 14 14 13 13 13 13 13 13 13 13 13 13 13 13 13 13 13 12 12 12 10 7 7 9 9 11 11 11 10 10 10
14 15 16 16 16 16 15 15 14 14 14 14 14 13 13 13 13 13 13 13 12 13 13 12 12 12 12 12 12 12 12 11 8 7 8 8 9 10 10 10 10 9 9
14 15 17 16 16 16 15 15 15 15 14 14 14 14 13 13 13 13 13 13 13 13 13 13 12 12 12 12 12 11 11 9 6 8 8 8 9 10 10 10 10 9 9
14 14 17 16 16 16 15 15 15 15 14 14 14 14 14 13 13 13 13 13 13 13 13 12 12 12 11 11 11 10 10 8 7 7 7 8 9 10 10 10 9 9 9
13 14 16 16 16 16 15 15 15 15 14 14 14 14 14 14 14 13 13 13 13 12 12 12 12 12 11 11 10 10 8 6 6 7 7 7 9 9 9 9 9 9 10
13 13 14 15 15 15 15 15 15 15 14 14 14 14 14 14 13 13 13 12 12 12 12 12 11 11 11 11 10 9 8 6 6 6 7 7 8 8 8 9 9 9 9
11 11 12 13 13 14 14 14 15 15 15 15 15 14 14 13 13 12 12 12 12 11 11 11 11 10 10 9 9 8 6 4 6 6 6 7 8 8 8 8 8 8 8
10 10 11 11 12 12 12 14 14 14 14 14 13 13 10 9 10 10 11 11 11 11 10 9 9 8 8 8 7 6 4 5 6 6 6 8 8 8 8 8 8 9 9
12 11 10 10 11 11 11 11 10 10 10 9 9 9 8 8 8 9 11 10 10 10 9 8 7 6 4 4 5 3 4 5 4 5 7 8 8 8 9 9 9 9 9
12 11 10 9 10 10 9 8 8 8 8 8 8 8 8 7 7 6 6 6 6 6 5 5 4 4 4 4 4 4 4 4 4 5 6 8 8 8 9 9 10 10 10
12 11 10 10 9 9 9 8 8 7 6 6 7 7 6 5 5 5 4 4 4 4 4 4 4 4 4 4 4 4 4 3 3 4 6 8 8 9 9 10 10 11 11
12 11 10 10 10 9 8 7 7 7 7 7 6 5 5 5 4 4 4 4 4 3 3 3 3 3 3 4 3 3 3 4 3 3 4 6 8 8 9 10 11 11 12
12 11 10 10 10 10 8 7 7 7 7 7 6 6 5 5 4 4 4 4 3 3 3 3 3 2 2 3 3 3 3 3 3 3 3 4 5 7 9 10 11 12 12
12 11 11 9 10 10 9 8 7 7 7 6 6 6 6 5 5 4 4 3 3 3 3 2 2 2 2 2 2 3 3 3 3 3 4 4 4 5 7 9 11 12 13
12 12 11 9 10 10 9 8 7 7 7 6 6 6 6 5 5 4 3 3 3 2 2 2 2 2 2 2 2 2 2 2 3 3 3 4 5 6 7 8 10 12 13
12 12 11 10 10 9 9 8 7 7 6 6 6 6 6 5 5 4 3 3 2 2 2 2 2 2 2 2 2 3 3 2 2 3 3 4 5 7 8 8 10 11 13
11 11 11 11 10 10 8 7 6 6 6 5 5 5 6 5 5 4 4 3 2 2 2 1 2 2 2 2 3 3 3 3 3 3 3 4 5 7 8 9 9 10 12
11 12 12 11 11 10 8 8 7 6 5 5 5 5 6 5 5 4 3 2 2 1 1 1 1 2 3 2 2 3 3 3 3 3 4 5 6 7 8 9 9 10 10
12 12 12 12 12 11 8 7 6 6 5 5 5 5 5 5 4 3 3 2 1 1 1 1 1 1 2 3 2 3 3 3 2 4 4 5 6 7 8 9 10 10 11
12 13 12 12 12 11 10 7 7 6 5 4 4 4 4 4 4 3 3 2 1 1 1 1 1 1 1 2 3 2 3 3 6 4 5 5 6 7 8 9 10 11 12
11 11 12 12 12 11 11 10 11 8 7 6 5 5 5 4 4 3 3 2 1 1 0 0 1 1 1 2 2 2 3 3 4 5 5 5 8 8 9 9 10 11 11
10 10 11 12 11 11 11 11 10 8 7 6 6 6 5 4 4 3 3 2 1 1 0 0 1 1 1 2 2 2 3 3 5 5 7 9 8 8 8 9 9 9 11
9 9 10 11 11 11 11 11 10 10 9 9 8 7 5 4 3 3 3 2 1 1 0 0 1 1 2 2 2 2 3 3 4 5 7 10 10 9 10 8 8 9 10
Wind_Direction
152 147 137 136 133 130 125 121 118 116 113 111 110 109 108 105 101 98 95 91 89 88 87 84 81 79 76 73 72 70 69 68 66 65 64 63 58 55 52 47 40 53 52
147 145 137 136 133 132 128 122 119 116 113 112 110 109 106 104 101 98 96 93 89 88 86 84 82 79 76 73 72 70 68 67 65 63 62 68 63 55 51 47 41 46 44
143 142 140 135 133 131 128 123 120 117 114 113 111 108 106 103 101 98 96 93 89 88 86 84 81 78 77 75 73 70 68 66 64 59 58 63 63 54 50 47 44 44 41
142 142 140 133 132 130 127 123 121 119 115 113 112 109 107 103 100 98 95 91 89 88 86 84 81 79 78 76 73 70 67 64 60 51 55 54 55 51 44 42 40 39 37
141 139 133 132 130 128 127 124 121 118 116 114 111 109 106 102 99 97 94 91 89 87 85 84 83 81 78 75 73 70 67 64 60 55 54 51 51 46 41 39 37 35 33
140 137 133 132 129 126 126 124 122 119 116 113 110 108 104 101 99 96 94 91 88 86 86 84 82 80 78 75 72 69 66 59 60 57 52 48 47 42 37 34 32 30 27
139 135 134 131 128 126 125 125 123 120 116 113 109 105 100 98 96 95 93 90 88 86 84 82 80 78 76 74 71 67 64 54 53 55 50 48 44 35 31 28 28 25 19
137 134 134 130 127 126 124 123 121 119 117 114 111 106 101 97 96 94 92 90 88 86 85 82 79 76 74 72 68 65 59 49 56 52 48 46 40 29 27 24 23 21 18
137 137 138 138 132 126 123 123 121 118 114 111 107 103 100 97 95 92 90 89 88 87 86 82 78 75 73 71 68 64 59 47 48 47 42 42 33 24 23 18 16 13 10
140 142 141 141 139 137 131 121 118 114 111 107 103 100 98 97 93 89 89 86 85 86 84 82 78 74 72 70 67 63 57 54 47 42 41 40 29 21 18 12 10 3 359
145 146 144 142 139 136 133 127 121 115 111 110 105 102 104 104 98 93 85 84 83 83 82 80 78 76 75 72 67 60 51 46 43 39 36 33 24 17 12 4 1 359 352
155 152 149 145 141 137 133 134 130 125 122 119 118 115 108 101 95 93 88 85 82 82 80 76 77 76 67 66 65 57 45 38 40 42 35 27 16 9 4 359 355 353 351
158 153 151 148 146 142 137 134 130 124 121 118 119 116 110 104 103 98 94 90 85 80 75 74 69 59 52 47 41 37 31 28 34 36 31 23 11 4 0 356 352 349 347
161 158 154 151 147 144 140 136 134 131 128 123 122 121 118 111 105 99 91 82 76 70 66 60 54 55 52 47 42 39 31 25 26 26 28 21 11 4 359 354 350 346 344
165 160 157 154 150 145 139 137 136 133 131 125 122 120 120 117 110 103 93 84 74 67 64 57 54 50 47 43 41 35 27 22 18 13 26 25 13 6 359 354 350 346 343
171 166 160 159 153 148 143 142 136 132 128 126 122 121 118 115 113 108 98 83 72 61 53 48 45 43 39 37 31 24 14 9 4 359 358 13 18 5 356 350 347 343 338
173 168 165 161 156 152 146 142 136 133 132 128 123 122 118 116 116 110 100 89 72 63 59 51 47 36 32 25 13 5 0 356 352 351 351 349 351 357 351 345 341 338 336
174 170 167 163 160 154 146 142 137 136 134 129 126 123 119 117 117 110 101 89 75 66 58 48 33 25 13 1 351 344 337 339 338 338 347 348 343 339 340 340 334 331 331
177 172 168 165 162 155 146 140 135 133 132 129 127 123 122 120 119 111 101 93 83 69 56 42 25 7 355 346 337 325 319 312 320 317 330 340 341 334 330 331 327 324 326
178 172 168 165 163 154 146 140 133 131 131 129 128 128 129 125 122 113 106 99 88 77 55 41 33 14 352 333 320 319 308 300 301 309 311 323 330 328 328 326 324 324 321
178 175 172 168 167 162 158 157 154 153 147 138 131 134 134 131 127 120 115 108 91 79 54 35 31 20 3 340 314 317 296 272 287 299 303 312 320 322 324 323 323 320 318
183 181 178 176 173 172 170 165 161 150 147 140 135 132 134 133 133 131 127 123 106 90 68 40 20 2 358 350 325 314 311 286 280 292 290 298 308 315 320 320 318 317 314
188 186 183 180 177 176 168 155 143 138 139 148 152 145 141 142 139 135 133 126 114 101 82 27 3 345 340 348 351 324 312 308 316 281 288 295 307 312 315 317 313 313 313
191 187 185 180 178 175 170 169 168 170 171 174 167 160 153 152 146 139 136 131 124 116 124 336 319 302 289 310 337 330 311 305 300 303 298 301 308 308 312 312 310 311 311
186 183 183 179 178 176 176 176 177 176 172 163 160 161 159 154 153 149 145 141 134 129 138 290 292 284 285 285 297 298 294 289 281 287 300 308 310 306 309 307 306 311 312
178 177 177 177 177 176 177 178 178 173 169 164 166 166 166 164 162 160 162 159 156 146 181 266 274 274 279 279 278 281 288 290 297 294 295 305 308 309 309 303 305 310 313
Height
1523 1525 1527 1529 1531 1533 1534 1535 1536 1537 1538 1539 1539 1540 1540 1540 1541 1541 1541 1541 1542 1542 1542 1542 1542 1541 1541 1541 1541 1540 1540 1540 1539 1539 1538 1538 1537 1537 1536 1535 1535 1535 1534
1522 1525 1527 1530 1532 1533 1535 1536 1537 1538 1539 1540 1540 1541 1541 1541 1542 1542 1542 1542 1543 1543 1543 1543 1542 1542 1542 1542 1541 1541 1541 1540 1540 1540 1539 1539 1538 1537 1536 1536 1535 1535 1534
1522 1525 1527 1530 1532 1534 1535 1537 1538 1539 1540 1541 1541 1542 1542 1543 1543 1543 1543 1544 1544 1544 1544 1544 1543 1543 1543 1543 1542 1542 1541 1541 1541 1540 1540 1539 1538 1537 1537 1536 1536 1535 1534
1522 1525 1528 1530 1533 1535 1536 1538 1539 1540 1541 1541 1542 1543 1543 1544 1544 1544 1545 1545 1545 1545 1545 1544 1544 1544 1544 1543 1543 1542 1542 1541 1541 1541 1541 1540 1539 1538 1537 1536 1536 1535 1534
1523 1526 1528 1531 1533 1535 1537 1538 1539 1541 1542 1542 1543 1544 1544 1545 1545 1545 1545 1546 1546 1546 1545 1545 1545 1545 1544 1544 1543 1543 1542 1542 1541 1541 1541 1540 1539 1538 1537 1536 1535 1534 1533
1524 1527 1529 1532 1534 1536 1537 1539 1540 1541 1542 1543 1544 1545 1545 1546 1546 1546 1546 1546 1546 1546 1546 1546 1546 1545 1545 1544 1544 1543 1543 1542 1542 1541 1541 1540 1539 1538 1537 1536 1535 1534 1533
1525 1527 1530 1532 1535 1536 1538 1539 1541 1542 1543 1544 1545 1546 1546 1547 1547 1547 1547 1547 1547 1547 1547 1547 1546 1546 1546 1545 1544 1544 1543 1543 1542 1541 1540 1539 1538 1537 1536 1535 1534 1533 1532
1525 1528 1530 1533 1535 1537 1539 1540 1542 1543 1544 1545 1546 1546 1547 1547 1548 1548 1548 1548 1548 1547 1547 1547 1547 1546 1546 1545 1545 1544 1543 1543 1542 1541 1540 1539 1538 1537 1536 1534 1533 1532 1531
1525 1528 1531 1533 1535 1537 1539 1541 1542 1543 1544 1545 1546 1547 1547 1548 1548 1548 1548 1548 1548 1548 1548 1548 1547 1547 1546 1546 1545 1544 1544 1543 1542 1541 1540 1539 1537 1536 1535 1534 1532 1531 1530
1525 1528 1530 1533 1535 1537 1539 1541 1542 1544 1545 1546 1547 1547 1548 1548 1548 1548 1549 1549 1548 1548 1548 1548 1547 1547 1546 1546 1545 1544 1543 1543 1542 1541 1540 1538 1537 1535 1534 1532 1531 1530 1528
1525 1528 1530 1533 1535 1537 1539 1541 1542 1544 1545 1546 1547 1547 1548 1548 1549 1549 1549 1549 1549 1548 1548 1548 1547 1547 1546 1545 1545 1544 1543 1542 1541 1540 1539 1537 1536 1534 1533 1531 1530 1528 1526
1524 1527 1529 1532 1534 1536 1538 1540 1542 1543 1545 1546 1547 1547 1548 1548 1548 1548 1549 1549 1549 1548 1548 1548 1547 1547 1546 1545 1544 1544 1543 1542 1540 1539 1537 1536 1534 1533 1531 1529 1528 1526 1524
1523 1526 1529 1531 1533 1536 1538 1540 1542 1543 1544 1545 1546 1547 1548 1548 1548 1548 1549 1549 1549 1548 1548 1547 1547 1546 1546 1545 1544 1543 1542 1541 1539 1538 1536 1534 1533 1531 1529 1527 1526 1524 1522
1522 1525 1528 1530 1533 1535 1537 1539 1541 1543 1544 1545 1546 1546 1547 1548 1548 1548 1548 1548 1548 1548 1547 1547 1546 1546 1545 1544 1543 1542 1541 1540 1538 1537 1535 1533 1531 1529 1527 1525 1523 1521 1519
1521 1523 1526 1529 1532 1534 1536 1539 1540 1542 1543 1544 1545 1546 1547 1547 1548 1548 1548 1548 1548 1547 1547 1546 1546 1545 1544 1543 1542 1541 1540 1538 1537 1535 1533 1531 1529 1527 1525 1523 1521 1519 1517
1519 1522 1525 1528 1531 1533 1536 1538 1540 1541 1542 1544 1545 1545 1546 1547 1547 1547 1547 1547 1547 1547 1546 1546 1545 1544 1543 1542 1541 1540 1538 1537 1535 1533 1531 1529 1527 1525 1523 1520 1518 1516 1513
1518 1521 1524 1527 1529 1532 1535 1537 1539 1540 1542 1543 1544 1545 1545 1546 1546 1547 1546 1546 1546 1546 1545 1545 1544 1543 1541 1540 1539 1538 1536 1535 1533 1531 1529 1527 1525 1522 1520 1517 1515 1513 1510
1516 1519 1522 1525 1528 1531 1533 1535 1537 1539 1541 1542 1543 1544 1544 1545 1545 1546 1546 1545 1545 1545 1544 1543 1542 1541 1540 1539 1537 1536 1534 1533 1531 1529 1527 1525 1522 1520 1517 1514 1512 1509 1506
1514 1517 1520 1523 1526 1529 1531 1534 1536 1538 1539 1541 1542 1543 1543 1544 1544 1545 1545 1544 1544 1544 1543 1542 1541 1540 1538 1537 1535 1534 1532 1530 1529 1527 1525 1523 1520 1517 1515 1512 1509 1506 1503
1511 1515 1518 1521 1524 1527 1529 1532 1534 1536 1538 1539 1540 1541 1542 1543 1543 1543 1543 1543 1543 1542 1542 1541 1539 1538 1537 1535 1533 1531 1529 1528 1526 1524 1523 1520 1518 1515 1512 1509 1506 1503 1499
1509 1512 1515 1518 1521 1524 1527 1529 1532 1534 1536 1538 1539 1540 1541 1541 1542 1542 1542 1542 1541 1541 1540 1539 1538 1536 1535 1533 1531 1529 1527 1525 1524 1522 1520 1518 1515 1513 1509 1506 1503 1500 1496
1505 1509 1512 1515 1518 1522 1525 1528 1530 1532 1534 1536 1537 1538 1539 1540 1540 1540 1540 1540 1540 1539 1538 1537 1536 1534 1533 1531 1530 1528 1526 1525 1522 1520 1517 1515 1512 1510 1507 1503 1500 1497 1493
1502 1505 1508 1512 1515 1519 1522 1525 1528 1530 1532 1534 1535 1536 1537 1538 1538 1539 1539 1538 1538 1537 1536 1535 1534 1533 1531 1530 1529 1529 1527 1524 1519 1517 1515 1512 1510 1507 1504 1501 1497 1493 1490
1498 1502 1505 1509 1512 1515 1519 1522 1524 1526 1528 1530 1532 1534 1535 1535 1536 1536 1536 1536 1536 1535 1534 1533 1532 1531 1530 1528 1527 1526 1525 1523 1520 1515 1512 1510 1508 1504 1501 1497 1494 1490 1486
1494 1498 1501 1505 1509 1512 1515 1519 1522 1524 1526 1528 1530 1531 1532 1533 1534 1534 1534 1534 1533 1533 1532 1531 1530 1529 1527 1526 1525 1524 1522 1520 1518 1515 1510 1506 1504 1501 1497 1494 1490 1486 1483
1490 1494 1497 1501 1505 1508 1512 1515 1518 1521 1523 1525 1526 1528 1529 1530 1531 1531 1531 1531 1531 1530 1529 1529 1527 1526 1525 1524 1522 1521 1519 1518 1516 1513 1509 1503 1500 1496 1493 1490 1487 1483 1479